CZ-3A R/B, 41435

Orbit data source: Space-Track

CZ-3A R/B, 41435 is space debris in HEO originally from a launch on Tue, 29 Mar 2016 UTC launched from the Xichang Space Center, China (XSC). Debris objects in space refer to the collection of defunct objects orbiting the Earth. Examples of debris include non-operational satellites, rocket bodies, and fragments generated from explosions, collisions, or faulty payload assembly.

Loading next visibility...
Identifier
41435, 2016-021B
Orbit
HEO
Last TLE update
2 days ago
Origin
Manufacturer
CALT
Mission
Spacecraft
Bus & Motor
CZ-3A STAGE 3, Unknown motor
Mass
~2,800 kg wet, ~2,800 kg dry
Launch date (UTC)
2016-03-29 (9 years ago)
Launch vehicle
Unknown
Launch site
Xichang Space Center, China (XSC)
Object type
Payload
Rocket body
Debris
Shape & HBR
Cyl + 1 Nozzle, 12.38 m
Radar Cross Section
32.751 m², Large (>1 m²)

Expand to show TLE details & history

TLE from 2 days ago
0 CZ-3A R/B
1 41435U 16021B   25127.02923869 -.00000024  00000-0  00000-0 0  9990
2 41435  55.1181  77.7504 6599334 228.2919  52.8243  2.39504853 79258
Epoch: 2025-05-07T00:42Z
Definitive object data (Epoch: 2025-05-07T00:42:06.222Z)
Latitude
0.00001°
Longitude
-157.93009°
Altitude
17,415.578 km
Speed
4.076 km/s
True Right ascension
05h 10m 51s
True Declination
0° 00' 00"
Sunlit
Object was in daylight at TLE epoch
Visualization TLE readout
Latitude
42.54251°
Longitude
-118.59152°
Altitude
32,221.028 km
Speed
1.941 km/s
Apparent Right ascension
07h 13m 44s
Apparent Declination
35° 46' 28"
Sunlit
Object is in daylight
Visualization observer readout
Local Sidereal Time
15:11:52
Azimuth
314.962° NW
Elevation
3.922°
Doppler factor
1
Orbital elements
Apogee altitude
32,791.462 km
Perigee altitude
1,646.445 km
Semi-major axis
23,597.091 km
Eccentricity
0.6599334
Inclination
55.1181°
RAAN
77.7504°
Arg. of periapsis
228.2919°
True anomaly
131.76895°
Mean anomaly
52.8243°
Eccentric anomaly
90.63339°
Mean motion
0.59876 °/min
BSTAR
Unknown
Orbital period
601.24 mins
Loading maneuver chart data...
Loading SW <> Apogee altitude chart data...
Loading historical data...
Loading historical data...
Loading historical data...
Loading historical data...
Loading historical data...
Loading historical data...
Loading historical data...
Other satellites on launch #21 in the year 2016 (2016-03-29 UTC)

CZ-3A R/B Visibility forecast

Observer location: undefined°, undefined°

Span
Click to sort rows by Start time (UTC) header in descending order
Start Az.
Max El. time (UTC)
Max El. Az.
Max El.
End time (UTC)
End Az.
118 mins2025-05-09 09:01:56.212Z322.782° NNW2025-05-09 10:37:56.212Z291.991° WNW19.924°2025-05-09 10:59:56.212Z247.322° WSW
153 mins2025-05-09 16:54:56.212Z51.661° ENE2025-05-09 18:22:56.212Z44.775° NE15.279°2025-05-09 19:27:56.212Z36.681° NE
520 mins2025-05-09 22:22:56.212Z214.879° SW2025-05-10 06:42:56.212Z214.064° SW44.977°2025-05-10 07:02:56.212Z143.35° SSE
|